Location: Unnamed
(25.2826°S, 57.6099°W)
Time: 15:47:28
(UTC-04:00)

ISS - Pass Details

Date: 03 May 2024
Orbit: 409 x 413 km, 51.6° (Epoch: 24 May)

Event Time Altitude Azimuth Distance (km) Brightness Sun altitude
Rises 18:05:53 0° 202° (SSW) 2,388 0.2 -10.9°
Reaches altitude 10° 18:08:36 10° 180° (S) 1,517 -1.1 -11.5°
Maximum altitude 18:10:49 16° 139° (SE) 1,193 -1.9 -12.0°
Enters shadow 18:11:05 16° 133° (SE) 1,198 -2.0 -12.0°
